Location: Kelshall
(52.0000°N, 0.0500°W)
Time: 11:11:00
(UTC+00:00)

Okean 1 Rocket - Pass Details

Date: 21 January 2021
Orbit: 605 x 635 km, 82.5° (Epoch: 05 March)

Event Time Altitude Azimuth Distance (km) Brightness Sun altitude
Exits shadow 04:51:45 14° 8° (N) 1,759 5.5 -27.7°
Drops below altitude 10° 04:52:25 10° 8° (N) 2,025 5.8 -27.6°
Sets 04:54:40 0° 10° (N) 2,933 6.7 -27.3°
